{"data":{"norad_id":53476,"intl_designator":"2022-099M","name":"STARLINK-4378","alt_names":[],"object_type":"PAYLOAD","status":"ACTIVE","operator":null,"country":"US","launch_date":"2022-08-12","launch_site_code":"AFWTR","launch_vehicle":null,"mission":null,"orbit_class":"UNKNOWN","rcs_meters":null,"size_class":null,"mass_kg":null,"dimensions":null,"purposes":["comms"],"wikipedia_slug":null,"has_3d_model":false,"image_url":null,"decayed_at":null,"tle_current":{"epoch":"2026-05-25T02:05:07.505088Z","epoch_age_seconds":67289,"freshness":"FRESH","line1":"1 53476U 22099M   26145.08689242  .00001564  00000+0  11240-3 0  9990","line2":"2 53476  97.4532 265.1172 0001141 137.9433 222.1882 15.05664679207472","mean_motion":15.05664679,"eccentricity":0.0001141,"inclination_deg":97.4532,"raan_deg":265.1172,"arg_perigee_deg":137.9433,"mean_anomaly_deg":222.1882,"bstar":0.0001124,"rev_number":20747,"period_min":95.638824506157,"perigee_km":548.67568851081,"apogee_km":550.25656754463,"semimajor_km":6927.6031280277,"source":"CELESTRAK","updated_at":"2026-05-25T13:38:17.431311Z"}}}